Weather History for KLAS - March, 2014

Change the Weather History Date:

Wednesday, March 19, 2014

  Actual Average Record
Temperature  
Mean Temperature 58 °F 61 °F  
Max Temperature 69 °F 71 °F 88 °F (1939)
Min Temperature 47 °F 50 °F 31 °F (1937)
Degree Days  
Heating Degree Days 7 6  
Month to date heating degree days 64 134  
Since 1 July heating degree days 1450 1825  
Cooling Degree Days 0 1  
Month to date cooling degree days 13 11  
Year to date cooling degree days 16 12  
Growing Degree Days 8 (Base 50)    
Moisture  
Dew Point 2 °F    
Average Humidity 12    
Maximum Humidity 18    
Minimum Humidity 5    
Precipitation  
Precipitation 0.00 in 0.01 in 0.51 in (1979)
Month to date precipitation 0.00 0.32  
Year to date precipitation 0.30 1.62  
Snow  
Snow 0.00 in 0.00 in 0.00 in (2014)
Month to date snowfall 0.0 0.0  
Since 1 July snowfall 0.0 0.3  
Snow Depth 0.00 in    
Sea Level Pressure  
Sea Level Pressure 30.07 in    
Wind  
Wind Speed 5 mph (South)    
Max Wind Speed 12 mph    
Max Gust Speed 12 mph    
Visibility 10 miles    
Events      
T = Trace of Precipitation, MM = Missing Value Source: NWS Daily Summary

Daily Weather History Graph

Daily Weather History Graph

Search for Another Location

Airport or City:

Trip Planner

Search our weather history database for the weather conditions in past years. The results will help you decide how hot, cold, wet, or windy it might be!

Date:

Astronomy

Mar. 19, 2014 Rise Set
Actual Time 6:45 AM PDT 6:51 PM PDT
Civil Twilight 6:20 AM PDT 7:17 PM PDT
Nautical Twilight 5:50 AM PDT 7:47 PM PDT
Astronomical Twilight 5:19 AM PDT 8:17 PM PDT
Moon 10:07 PM PDT (3/19) 8:19 AM PDT (3/19)
Length of Visible Light 12h 57m
Length of Day
12h 06m
Waning Gibbous, 90% of the Moon is Illuminated
Mar 19
Waning Gibbous
Mar 23
Last Quarter
Mar 30
New
Apr 7
First Quarter
Apr 15
Full

Hourly Weather History & Observations

Time (PDT) Temp. Dew Point Humidity Pressure Visibility Wind Dir Wind Speed Gust Speed Precip Events Conditions
12:56 AM 53.1 °F 5.0 °F 14% 30.03 in 10.0 mi South 4.6 mph - N/A   Clear
1:56 AM 52.0 °F 3.0 °F 14% 30.05 in 10.0 mi Variable 3.5 mph - N/A   Clear
2:56 AM 51.1 °F 3.0 °F 14% 30.06 in 10.0 mi ENE 4.6 mph - N/A   Clear
3:56 AM 50.0 °F 3.0 °F 15% 30.06 in 10.0 mi Calm Calm - N/A   Clear
4:56 AM 48.0 °F 5.0 °F 17% 30.09 in 10.0 mi SSW 9.2 mph - N/A   Clear
5:56 AM 48.9 °F 5.0 °F 17% 30.11 in 10.0 mi Calm Calm - N/A   Clear
6:56 AM 48.0 °F 6.1 °F 18% 30.12 in 10.0 mi ENE 5.8 mph - N/A   Clear
7:56 AM 51.1 °F 7.0 °F 17% 30.13 in 10.0 mi NNE 4.6 mph - N/A   Clear
8:56 AM 53.1 °F 7.0 °F 16% 30.14 in 10.0 mi South 4.6 mph - N/A   Clear
9:56 AM 55.9 °F 6.1 °F 14% 30.15 in 10.0 mi Variable 4.6 mph - N/A   Clear
10:56 AM 59.0 °F 5.0 °F 12% 30.14 in 10.0 mi Variable 3.5 mph - N/A   Clear
11:56 AM 61.0 °F 3.0 °F 10% 30.13 in 10.0 mi Variable 4.6 mph - N/A   Clear
12:56 PM 63.0 °F 1.0 °F 8% 30.11 in 10.0 mi Variable 4.6 mph - N/A   Clear
1:56 PM 64.9 °F -0.9 °F 7% 30.07 in 10.0 mi Variable 4.6 mph - N/A   Clear
2:56 PM 64.9 °F -2.9 °F 7% 30.05 in 10.0 mi Calm Calm - N/A   Clear
3:56 PM 68.0 °F -5.1 °F 5% 30.03 in 10.0 mi Variable 3.5 mph - N/A   Clear
4:56 PM 66.9 °F -6.0 °F 5% 30.02 in 10.0 mi South 3.5 mph - N/A   Clear
5:56 PM 66.9 °F -7.1 °F 5% 30.02 in 10.0 mi South 5.8 mph - N/A   Clear
6:56 PM 64.9 °F -7.1 °F 5% 30.02 in 10.0 mi South 4.6 mph - N/A   Clear
7:56 PM 63.0 °F -2.9 °F 7% 30.03 in 10.0 mi South 6.9 mph - N/A   Clear
8:56 PM 61.0 °F 1.0 °F 9% 30.04 in 10.0 mi WSW 6.9 mph - N/A   Clear
9:56 PM 57.0 °F 3.9 °F 12% 30.04 in 10.0 mi SW 8.1 mph - N/A   Partly Cloudy
10:56 PM 55.0 °F 6.1 °F 14% 30.04 in 10.0 mi SSW 9.2 mph - N/A   Partly Cloudy
11:56 PM 53.1 °F 6.1 °F 15% 30.04 in 10.0 mi SSW 9.2 mph - N/A   Scattered Clouds